Weather History for Vasteras, Sweden

Change the Weather History Date:

Saturday, February 23, 2013

  Actual Average Record
Temperature  
Mean Temperature 19 °F -  
Max Temperature 30 °F 36 °F 46 °F (1998)
Min Temperature 8 °F 22 °F -13 °F (2011)
Degree Days  
Heating Degree Days 46    
Moisture  
Dew Point 20 °F    
Average Humidity 91    
Maximum Humidity 100    
Minimum Humidity 85    
Precipitation  
Precipitation 0.00 in - - ()
Sea Level Pressure  
Sea Level Pressure 30.39 in    
Wind  
Wind Speed 1 mph ()    
Max Wind Speed 5 mph    
Max Gust Speed -    
Visibility 3.2 miles    
Events Fog , Snow    
Averages and records for this station are not official NWS values.
T = Trace of Precipitation, MM = Missing Value Source: Averaged Metar Reports

Daily Weather History Graph

Daily Weather History Graph

Search for Another Location

Airport:

Trip Planner

Search our weather history database for the weather conditions in past years. The results will help you decide how hot, cold, wet, or windy it might be!

Date:

Astronomy

Feb. 23, 2013 Rise Set
Actual Time 7:07 AM CET 5:06 PM CET
Civil Twilight 6:26 AM CET 5:48 PM CET
Nautical Twilight 5:38 AM CET 6:36 PM CET
Astronomical Twilight 4:50 AM CET 7:24 PM CET
Moon 2:39 PM CET (2/23) 5:43 AM CET (2/23)
Length of Visible Light 11h 22m
Length of Day
9h 58m
Waxing Gibbous, 94% of the Moon is Illuminated
Feb 23
Waxing Gibbous
Feb 25
Full
Mar 4
Last Quarter
Mar 11
New
Mar 19
First Quarter

Hourly Weather History & Observations

Time (CET) Temp. Windchill Dew Point Humidity Pressure Visibility Wind Dir Wind Speed Gust Speed Precip Events Conditions
12:20 AM 24.8 °F - 24.8 °F 100% 30.30 in 0.2 mi Calm Calm - N/A Snow Light Snow
12:50 AM 24.8 °F - 23.0 °F 93% 30.30 in - ESE 1.2 mph - N/A Snow Light Snow
1:20 AM 26.6 °F - 24.8 °F 93% 30.33 in 4.3 mi ESE 1.2 mph - N/A   Overcast
1:50 AM 26.6 °F - 24.8 °F 93% 30.33 in 4.3 mi Calm Calm - N/A   Overcast
2:20 AM 26.6 °F - 24.8 °F 93% 30.33 in 4.3 mi North 1.2 mph - N/A   Overcast
2:50 AM 26.6 °F - 24.8 °F 93% 30.33 in 4.3 mi Variable 1.2 mph - N/A   Overcast
3:20 AM 26.6 °F - 24.8 °F 93% 30.33 in 3.1 mi Calm Calm - N/A   Overcast
3:50 AM 26.6 °F - 24.8 °F 93% 30.33 in 3.1 mi Calm Calm - N/A Snow Snow Grains
4:20 AM 26.6 °F - 24.8 °F 93% 30.33 in - Calm Calm - N/A Snow Light Snow
4:50 AM 26.6 °F - 26.6 °F 100% 30.33 in 1.2 mi Calm Calm - N/A Snow Light Snow
5:20 AM 26.6 °F - 26.6 °F 100% 30.33 in - Calm Calm - N/A   Partly Cloudy
5:50 AM 26.6 °F 22.6 °F 24.8 °F 93% 30.36 in - North 3.5 mph - N/A Snow Light Snow
6:20 AM 26.6 °F - 24.8 °F 93% 30.36 in 3.1 mi Calm Calm - N/A Snow Light Snow
6:50 AM 23.0 °F - 23.0 °F 100% 30.36 in 1.5 mi ESE 2.3 mph - N/A   Mostly Cloudy
7:20 AM 24.8 °F - 24.8 °F 100% 30.36 in 5.0 mi Calm Calm - N/A   Overcast
7:50 AM 26.6 °F - 24.8 °F 93% 30.36 in 3.7 mi Calm Calm - N/A   Mostly Cloudy
8:20 AM 26.6 °F - 26.6 °F 100% 30.39 in 4.3 mi Calm Calm - N/A   Overcast
8:50 AM 28.4 °F - 26.6 °F 93% 30.39 in 5.0 mi East 1.2 mph - N/A   Overcast
9:20 AM 28.4 °F - 26.6 °F 93% 30.39 in 4.3 mi Variable 1.2 mph - N/A   Overcast
9:50 AM 28.4 °F - 26.6 °F 93% 30.39 in 5.0 mi East 2.3 mph - N/A Snow Snow Grains
10:20 AM 30.2 °F - 26.6 °F 86% 30.39 in 5.6 mi Calm Calm - N/A   Overcast
10:50 AM 30.2 °F - 26.6 °F 86% 30.42 in 6.2 mi Calm Calm - N/A Snow Light Snow
11:20 AM 30.2 °F 25.4 °F 26.6 °F 86% 30.42 in 6.2 mi East 4.6 mph - N/A   Overcast
11:50 AM 28.4 °F - 24.8 °F 86% 30.42 in 6.2 mi Variable 2.3 mph - N/A   Overcast
12:20 PM 28.4 °F - 26.6 °F 93% 30.42 in 6.2 mi Variable 2.3 mph - N/A   Overcast
12:50 PM 30.2 °F - 26.6 °F 86% 30.42 in 6.2 mi Calm Calm - N/A   Overcast
1:20 PM 30.2 °F - 26.6 °F 86% 30.42 in 6.2 mi Variable 2.3 mph - N/A   Overcast
1:50 PM 30.2 °F - 26.6 °F 86% 30.42 in 6.2 mi Calm Calm - N/A   Overcast
2:20 PM 30.2 °F - 26.6 °F 86% 30.42 in 6.2 mi North 2.3 mph - N/A   Overcast
2:50 PM 28.4 °F 24.6 °F 24.8 °F 86% 30.42 in 6.2 mi North 3.5 mph - N/A   Overcast
3:20 PM 28.4 °F 24.6 °F 24.8 °F 86% 30.42 in 6.2 mi North 3.5 mph - N/A   Mostly Cloudy
3:50 PM 28.4 °F 24.6 °F 24.8 °F 86% 30.42 in 6.2 mi North 3.5 mph - N/A   Scattered Clouds
4:20 PM 23.0 °F - 21.2 °F 93% 30.42 in 0.2 mi Calm Calm - N/A Fog Light Freezing Fog
4:50 PM 19.4 °F - 17.6 °F 93% 30.42 in 0.1 mi NNW 1.2 mph - N/A Fog Light Freezing Fog
5:20 PM 15.8 °F - 14.0 °F 93% 30.42 in 0.0 mi North 1.2 mph - N/A Fog Light Freezing Fog
5:50 PM 15.8 °F - 14.0 °F 93% 30.42 in 0.1 mi North 1.2 mph - N/A Fog Light Freezing Fog
6:20 PM 14.0 °F - 12.2 °F 93% 30.42 in 0.1 mi Calm Calm - N/A Fog Light Freezing Fog
6:50 PM 8.6 °F - 6.8 °F 92% 30.42 in 0.1 mi Calm Calm - N/A Fog Light Freezing Fog
7:20 PM 10.4 °F - 6.8 °F 85% 30.42 in 0.1 mi Calm Calm - N/A Fog Light Freezing Fog
7:50 PM 10.4 °F - 6.8 °F 85% 30.42 in 0.1 mi North 1.2 mph - N/A Fog Light Freezing Fog
8:20 PM 8.6 °F - 6.8 °F 92% 30.42 in 0.1 mi North 1.2 mph - N/A Fog Light Freezing Fog
8:50 PM 8.6 °F - 6.8 °F 92% 30.42 in 0.1 mi Variable 2.3 mph - N/A Fog Patches of Fog
9:20 PM 12.2 °F - 10.4 °F 92% 30.42 in 0.3 mi Calm Calm - N/A   Overcast
9:50 PM 10.4 °F - 8.6 °F 92% 30.42 in - Calm Calm - N/A   Scattered Clouds
10:20 PM 12.2 °F - 8.6 °F 85% 30.45 in - Calm Calm - N/A   Overcast
10:50 PM 12.2 °F - 8.6 °F 85% 30.45 in 0.2 mi Calm Calm - N/A   Overcast
11:20 PM 12.2 °F - 10.4 °F 92% 30.45 in 0.4 mi Calm Calm - N/A   Overcast
11:50 PM 12.2 °F - 8.6 °F 85% 30.45 in 0.2 mi Calm Calm - N/A   Overcast